Regional Weather Roundup
Issued by NWS

Home | Current Version | Previous Version | Graphics & Text | Print | Product List | Glossary On
Versions: 1 2 3 4 5 6 7 8 9 10 11 12 13 14 15 16 17 18 19 20 21 22 23 24 25 26 27 28 29 30 31 32 33 34 35 36 37 38 39 40 41 42 43 44 45 46 47 48 49 50
476
ASUS43 KOAX 280110
RWRNE

WEATHER ROUNDUP FOR NEBRASKA
NATIONAL WEATHER SERVICE OMAHA NE
800 PM CDT MON MAR 27 2017

NOTES: SATELLITE DATA IS BEING USED TO AUGMENT CLOUD COVER ABOVE
       12000 FEET.
       "FAIR" INDICATES FEW OR NO CLOUDS BELOW 12,000 FEET WITH NO
       SIGNIFICANT WEATHER AND/OR OBSTRUCTIONS TO VISIBILITY.

  * THESE STATIONS DO NOT REPORT WEATHER SUCH AS RAIN...SNOW OR FOG.

NEZ001>004-019>022-054>056-280200-
NEBRASKA PANHANDLE

CITY           SKY/WX    TMP DP  RH WIND       PRES   REMARKS
SCOTTSBLUFF    CLOUDY    59  32  36 E3        29.80R
ALLIANCE       CLOUDY    56  32  40 S7        29.80R
CHADRON        PTCLDY    59  34  39 NE12      29.80R
KIMBALL        CLOUDY    57  34  40 SE10      29.82R
SIDNEY         CLOUDY    58  31  35 SE12      29.82R
$$

NEZ057>060-069>072-079>082-280200-
SOUTHWEST NEBRASKA

CITY           SKY/WX    TMP DP  RH WIND       PRES   REMARKS
NORTH PLATTE   CLEAR     57  42  57 SE10      29.86R
IMPERIAL       CLEAR     58  37  45 SE13      29.84R
LEXINGTON      CLEAR     55  43  63 SE9       29.90S
MCCOOK         CLEAR     57  42  57 SE12      29.88R
OGALLALA       CLEAR     61  35  39 SE6       29.83R
$$

NEZ005>010-023>029-035>040-094-280200-
NORTH CENTRAL NEBRASKA

CITY           SKY/WX    TMP DP  RH WIND       PRES   REMARKS
VALENTINE      CLOUDY    57  37  47 E9        29.87R
AINSWORTH      CLOUDY    55  43  63 SE10      29.89R
BROKEN BOW     CLEAR     52  43  71 SE8       29.90R
O`NEILL        CLEAR     53  38  56 E6        29.92R
ORD            CLEAR     55  40  56 SE7       29.91R
THEDFORD       CLOUDY    58  44  60 SE12      29.87R
$$

NEZ041-046>049-061>064-073>077-083>087-280200-
SOUTH CENTRAL NEBRASKA

CITY           SKY/WX    TMP DP  RH WIND       PRES   REMARKS
GRAND ISLAND   CLEAR     49  42  77 SE6       29.94R
AURORA         CLEAR     48  40  76 SE5       29.95R
HASTINGS       CLEAR     47  41  80 SE7       29.95R
HEBRON         CLOUDY    50  42  74 CALM      29.96S
HOLDREGE       CLEAR     51  41  69 SE12      29.92R
KEARNEY *      CLEAR     50  39  66 SE9       29.94R
YORK           CLEAR     48  41  76 CALM      29.95S
$$

NEZ011>018-030>034-042>045-280200-
NORTHEAST NEBRASKA

CITY           SKY/WX    TMP DP  RH WIND       PRES   REMARKS
NORFOLK        CLEAR     50  38  63 SE8       29.93R
ALBION         CLEAR     53  40  63 SE6       29.93R
BLAIR          CLOUDY    49  41  75 CALM      29.96S
FREMONT        MOCLDY    48  40  74 SE3       29.97R
TEKAMAH        CLEAR     49  43  80 S6        29.96S
WAYNE          CLEAR     49  41  75 SE7       29.94S
$$

NEZ050>053-065>068-078-088>093-280200-
SOUTHEAST NEBRASKA

CITY           SKY/WX    TMP DP  RH WIND       PRES   REMARKS
LINCOLN        CLEAR     48  39  71 E8        29.97R
OMAHA EPPLEY   CLOUDY    51  40  65 CALM      29.97R
BEATRICE       CLEAR     50  42  73 CALM      29.96R
FALLS CITY     CLOUDY    49  42  77 NE3       29.96R
NEBRASKA CITY  CLOUDY    47  38  72 NE7       29.97S
PLATTSMOUTH    CLOUDY    48  38  67 CALM      29.97R
$$

NEZ044-045-051>053-067-280200-
OMAHA AREA

CITY           SKY/WX    TMP DP  RH WIND       PRES   REMARKS
OMAHA EPPLEY   CLOUDY    51  40  65 CALM      29.97R
BLAIR          CLOUDY    49  41  75 CALM      29.96S
FREMONT        MOCLDY    48  40  74 SE3       29.97R
MILLARD        CLOUDY    52  42  68 CALM      29.97S
OFFUTT AFB     CLOUDY    50  40  69 CALM      29.97R
PLATTSMOUTH    CLOUDY    48  38  67 CALM      29.97R
WAHOO          FAIR      47  41  79 E7        29.96S
$$




USA.gov is the U.S. government's official web portal to all federal, state and local government web resources and services.